Weather History for Fort Myers Airport, FL

Change the Weather History Date:

Friday, May 3, 2013

  Actual Average Record
Temperature  
Mean Temperature 72 °F -  
Max Temperature 82 °F 87 °F 97 °F (2002)
Min Temperature 61 °F 64 °F 55 °F (1998)
Cooling Degree Days 6    
Growing Degree Days 22 (Base 50)    
Moisture  
Dew Point 64 °F    
Average Humidity 88    
Maximum Humidity 100    
Minimum Humidity 56    
Precipitation  
Precipitation 0.00 in - - ()
Sea Level Pressure  
Sea Level Pressure 29.78 in    
Wind  
Wind Speed 2 mph (NW)    
Max Wind Speed 12 mph    
Max Gust Speed 17 mph    
Visibility 6 miles    
Events Fog    
Averages and records for this station are not official NWS values.
T = Trace of Precipitation, MM = Missing Value Source: NWS Daily Summary

Daily Weather History Graph

Daily Weather History Graph

Search for Another Location

Airport:

Trip Planner

Search our weather history database for the weather conditions in past years. The results will help you decide how hot, cold, wet, or windy it might be!

Date:

Astronomy

May. 03, 2013 Rise Set
Actual Time 6:47 AM EDT 8:00 PM EDT
Civil Twilight 6:22 AM EDT 8:25 PM EDT
Nautical Twilight 5:53 AM EDT 8:54 PM EDT
Astronomical Twilight 5:23 AM EDT 9:24 PM EDT
Moon 2:35 AM EDT (5/3) 2:26 PM EDT (5/3)
Length of Visible Light 14h 02m
Length of Day
13h 13m
Last Quarter, 37% of the Moon is Illuminated
May 3
Last Quarter
May 9
New
May 18
First Quarter
May 25
Full
May 31
Last Quarter

Hourly Weather History & Observations

Time (EDT) Temp. Heat Index Dew Point Humidity Pressure Visibility Wind Dir Wind Speed Gust Speed Precip Events Conditions
12:34 AM 64.4 °F - 64.4 °F 100% 29.85 in 2.5 mi Calm Calm - N/A   Clear
12:42 AM 64.4 °F - 64.4 °F 100% 29.84 in 9.0 mi Calm Calm - N/A   Clear
12:53 AM 64.0 °F - 64.0 °F 100% 29.83 in 10.0 mi Calm Calm - N/A   Clear
1:12 AM 62.6 °F - 62.6 °F 100% 29.83 in 9.0 mi Calm Calm - N/A   Mostly Cloudy
1:33 AM 62.6 °F - 62.6 °F 100% 29.82 in 1.8 mi Calm Calm - N/A   Overcast
1:43 AM 62.6 °F - 62.6 °F 100% 29.81 in 0.5 mi Calm Calm - N/A Fog Fog
1:53 AM 63.0 °F - 63.0 °F 100% 29.80 in 0.5 mi Calm Calm - N/A Fog Fog
2:18 AM 62.6 °F - 62.6 °F 100% 29.80 in 0.2 mi Calm Calm - N/A Fog Fog
2:38 AM 62.6 °F - 62.6 °F 100% 29.79 in 0.2 mi Calm Calm - N/A Fog Fog
2:53 AM 64.0 °F - 64.0 °F 100% 29.78 in 0.2 mi Calm Calm - N/A Fog Fog
3:17 AM 62.6 °F - 62.6 °F 100% 29.78 in 0.2 mi Calm Calm - N/A Fog Fog
3:53 AM 63.0 °F - 63.0 °F 100% 29.77 in 0.2 mi Calm Calm - N/A Fog Fog
4:05 AM 62.6 °F - 62.6 °F 100% 29.77 in 0.5 mi Calm Calm - N/A Fog Fog
4:53 AM 63.0 °F - 63.0 °F 100% 29.77 in 0.8 mi Calm Calm - N/A   Mist
5:18 AM 62.6 °F - 62.6 °F 100% 29.77 in 0.2 mi Calm Calm - N/A Fog Fog
5:44 AM 62.6 °F - 62.6 °F 100% 29.78 in 0.5 mi East 3.5 mph - N/A Fog Fog
5:53 AM 61.0 °F - 61.0 °F 100% 29.78 in 0.5 mi ENE 4.6 mph - N/A Fog Fog
6:10 AM 62.6 °F - 62.6 °F 100% 29.79 in 1.0 mi ENE 3.5 mph - N/A   Overcast
6:22 AM 62.6 °F - 62.6 °F 100% 29.79 in 3.0 mi NE 3.5 mph - N/A   Overcast
6:44 AM 62.6 °F - 62.6 °F 100% 29.79 in 10.0 mi NNE 3.5 mph - N/A   Scattered Clouds
6:53 AM 63.0 °F - 63.0 °F 100% 29.79 in 10.0 mi Calm Calm - N/A   Partly Cloudy
7:53 AM 64.9 °F - 64.9 °F 100% 29.80 in 10.0 mi Calm Calm - N/A   Partly Cloudy
8:53 AM 70.0 °F - 66.9 °F 90% 29.79 in 10.0 mi Calm Calm - N/A   Scattered Clouds
9:53 AM 73.0 °F - 66.9 °F 81% 29.80 in 10.0 mi WSW 3.5 mph - N/A   Partly Cloudy
10:53 AM 75.9 °F - 66.0 °F 71% 29.78 in 10.0 mi West 5.8 mph - N/A   Partly Cloudy
11:53 AM 79.0 °F - 66.9 °F 66% 29.78 in 10.0 mi WNW 4.6 mph - N/A   Clear
12:53 PM 80.1 °F 81.5 °F 63.0 °F 56% 29.77 in 10.0 mi NW 4.6 mph - N/A   Partly Cloudy
1:53 PM 81.0 °F 83.0 °F 66.0 °F 60% 29.75 in 10.0 mi West 11.5 mph - N/A   Mostly Cloudy
2:53 PM 82.0 °F 84.5 °F 66.9 °F 60% 29.73 in 10.0 mi WSW 11.5 mph 16.1 mph N/A   Mostly Cloudy
3:53 PM 82.0 °F 84.1 °F 66.0 °F 58% 29.71 in 10.0 mi West 9.2 mph - N/A   Scattered Clouds
4:53 PM 82.0 °F 83.8 °F 64.9 °F 56% 29.70 in 10.0 mi WNW 9.2 mph - N/A   Partly Cloudy
5:53 PM 80.1 °F 82.1 °F 66.0 °F 62% 29.71 in 10.0 mi West 11.5 mph 17.3 mph N/A   Partly Cloudy
6:53 PM 77.0 °F - 64.9 °F 66% 29.72 in 10.0 mi West 10.4 mph 17.3 mph N/A   Clear
7:53 PM 73.9 °F - 64.0 °F 71% 29.73 in 10.0 mi NW 9.2 mph - N/A   Clear
8:53 PM 73.0 °F - 66.0 °F 79% 29.74 in 10.0 mi WNW 8.1 mph - N/A   Clear
9:53 PM 72.0 °F - 66.9 °F 84% 29.75 in 10.0 mi WNW 4.6 mph - N/A   Clear
10:53 PM 71.1 °F - 66.0 °F 84% 29.77 in 10.0 mi WNW 3.5 mph - N/A   Clear
11:53 PM 71.1 °F - 66.0 °F 84% 29.77 in 10.0 mi Calm Calm - N/A   Clear